Location: Newark
(44.3248°N, 23.7839°E)
Time: 05:41:32
(UTC+00:00)

FO-29 - Pass Details

Date: 29 April 2024
Orbit: 801 x 1320 km, 98.6° (Epoch: 28 May)

Event Time Altitude Azimuth Distance (km) Brightness Sun altitude
Rises 01:03:38 0° 9° (N) 4,245 13.8 -20.6°
Reaches altitude 10° 01:06:20 10° 6° (N) 3,310 13.0 -20.3°
Maximum altitude 01:13:50 53° 292° (WNW) 1,580 10.4 -19.4°
Enters shadow 01:17:59 28° 230° (SW) 2,264 10.8 -18.8°
